Columbia, SC

1:33 PM EDT on September 25, 2016 (GMT -0400)
Columbia Owens Downtown

Weather History for KCUB - April, 2013

Change the Weather History Date:

Tuesday, April 9, 2013

  Actual Average Record
Temperature  
Mean Temperature 71 °F 63 °F  
Max Temperature 85 °F 75 °F 90 °F (2001)
Min Temperature 57 °F 51 °F 37 °F (2007)
Degree Days  
Heating Degree Days 0 4  
Month to date heating degree days 55 42  
Since 1 July heating degree days 2146 2245  
Cooling Degree Days 6 2  
Month to date cooling degree days 12 16  
Year to date cooling degree days 47 34  
Growing Degree Days 20 (Base 50)    
Moisture  
Dew Point 57 °F    
Average Humidity 65    
Maximum Humidity 93    
Minimum Humidity 34    
Precipitation  
Precipitation 0.00 in 0.10 in 1.47 in (2003)
Month to date precipitation 1.56 0.94  
Year to date precipitation 12.07 12.10  
Sea Level Pressure  
Sea Level Pressure 30.16 in    
Wind  
Wind Speed 3 mph (SSW)    
Max Wind Speed 12 mph    
Max Gust Speed 14 mph    
Visibility 10 miles    
Events      
T = Trace of Precipitation, MM = Missing Value Source: NWS Daily Summary

Daily Weather History Graph

Daily Weather History Graph

Search for Another Location

Airport or City:

Trip Planner

Search our weather history database for the weather conditions in past years. The results will help you decide how hot, cold, wet, or windy it might be!

Date:

Astronomy

Apr. 09, 2013 Rise Set
Actual Time 7:00 AM EDT 7:50 PM EDT
Civil Twilight 6:35 AM EDT 8:16 PM EDT
Nautical Twilight 6:04 AM EDT 8:46 PM EDT
Astronomical Twilight 5:34 AM EDT 9:17 PM EDT
Moon 6:20 AM EDT (4/9) 7:24 PM EDT (4/9)
Length of Visible Light 13h 41m
Length of Day
12h 50m
Waning Crescent, 1% of the Moon is Illuminated
Apr 9
Waning Crescent
Apr 10
New
Apr 18
First Quarter
Apr 25
Full
May 2
Last Quarter

Hourly Weather History & Observations

Time (EDT) Temp. Heat Index Dew Point Humidity Pressure Visibility Wind Dir Wind Speed Gust Speed Precip Events Conditions
12:53 AM 64.9 °F - 57.0 °F 75% 30.16 in 10.0 mi Calm Calm - N/A   Clear
1:53 AM 62.1 °F - 57.0 °F 84% 30.15 in 10.0 mi Calm Calm - N/A   Clear
2:53 AM 62.1 °F - 57.9 °F 86% 30.13 in 10.0 mi Calm Calm - N/A   Clear
3:53 AM 61.0 °F - 57.0 °F 87% 30.13 in 10.0 mi South 3.5 mph - N/A   Clear
4:53 AM 62.1 °F - 57.9 °F 86% 30.14 in 10.0 mi South 3.5 mph - N/A   Clear
5:53 AM 59.0 °F - 57.0 °F 93% 30.15 in 9.0 mi Calm Calm - N/A   Clear
6:53 AM 57.0 °F - 55.0 °F 93% 30.18 in 8.0 mi Calm Calm - N/A   Clear
7:53 AM 59.0 °F - 57.0 °F 93% 30.20 in 9.0 mi Calm Calm - N/A   Clear
8:53 AM 64.0 °F - 60.1 °F 87% 30.22 in 9.0 mi Calm Calm - N/A   Clear
9:53 AM 69.1 °F - 61.0 °F 75% 30.22 in 10.0 mi Calm Calm - N/A   Clear
10:53 AM 75.0 °F - 61.0 °F 62% 30.23 in 10.0 mi WNW 4.6 mph - N/A   Clear
11:53 AM 78.1 °F - 60.1 °F 54% 30.22 in 10.0 mi Variable 3.5 mph - N/A   Clear
12:53 PM 80.1 °F 80.6 °F 57.9 °F 47% 30.20 in 10.0 mi Calm Calm - N/A   Clear
1:53 PM 82.0 °F 81.6 °F 55.9 °F 41% 30.18 in 10.0 mi SSW 5.8 mph - N/A   Clear
2:53 PM 84.0 °F 83.0 °F 55.9 °F 38% 30.16 in 10.0 mi SSW 9.2 mph - N/A   Clear
3:53 PM 82.9 °F 81.9 °F 54.0 °F 37% 30.14 in 10.0 mi South 5.8 mph - N/A   Mostly Cloudy
4:53 PM 82.9 °F 81.8 °F 53.1 °F 36% 30.12 in 10.0 mi South 5.8 mph - N/A   Mostly Cloudy
5:53 PM 84.0 °F 82.5 °F 53.1 °F 34% 30.12 in 10.0 mi South 5.8 mph - N/A   Scattered Clouds
6:53 PM 82.0 °F 81.4 °F 55.0 °F 39% 30.12 in 10.0 mi SSW 5.8 mph - N/A   Scattered Clouds
7:53 PM 79.0 °F - 55.0 °F 44% 30.12 in 10.0 mi Calm Calm - N/A   Clear
8:53 PM 73.0 °F - 57.9 °F 59% 30.13 in 10.0 mi Calm Calm - N/A   Clear
9:53 PM 69.1 °F - 59.0 °F 70% 30.14 in 10.0 mi Calm Calm - N/A   Clear
10:53 PM 70.0 °F - 57.9 °F 65% 30.14 in 10.0 mi South 4.6 mph - N/A   Clear
11:53 PM 69.1 °F - 60.1 °F 73% 30.13 in 10.0 mi Calm Calm - N/A   Clear